DW9447 Weather Reports


time (UTC)temp
F
wind
direction
speed
knots
gust
knots
rain 1hr
in
rain 24hr
in
rain mn
in
humidity
%
barometer
mb
20211017165607 63 53 3.5 8.7 0.00 0.00 0.00 36 1025.4
20211017165114 63 23 3.5 7.8 0.00 0.00 0.00 36 1025.4
20211017164555 63 345 2.6 6.1 0.00 0.00 0.00 38 1025.4
20211017164110 63 355 2.6 6.1 0.00 0.00 0.00 39 1025.5
20211017163551 63 26 2.6 7.0 0.00 0.00 0.00 39 1025.5
20211017163106 63 34 2.6 7.0 0.00 0.00 0.00 40 1025.5
20211017162548 63 92 3.5 8.7 0.00 0.00 0.00 38 1025.6
20211017162043 63 78 3.5 8.7 0.00 0.00 0.00 37 1025.6
20211017161544 63 92 1.7 6.1 0.00 0.00 0.00 38 1025.6
20211017161045 62 55 2.6 8.7 0.00 0.00 0.00 38 1025.6
20211017160544 62 57 3.5 8.7 0.00 0.00 0.00 38 1025.5
20211017160042 62 98 3.5 8.7 0.00 0.00 0.00 39 1025.5
20211017155547 62 18 4.3 8.7 0.00 0.00 0.00 37 1025.5
20211017155046 62 84 3.5 7.8 0.00 0.00 0.00 41 1025.5
20211017154541 62 42 2.6 6.1 0.00 0.00 0.00 44 1025.6
20211017154043 61 82 1.7 7.0 0.00 0.00 0.00 43 1025.5
20211017153542 61 92 1.7 6.1 0.00 0.00 0.00 46 1025.5
20211017153038 61 37 2.6 7.8 0.00 0.00 0.00 48 1025.5
20211017152526 60 67 2.6 7.8 0.00 0.00 0.00 46 1025.5
20211017152024 60 77 2.6 6.1 0.00 0.00 0.00 48 1025.4
20211017151516 59 62 2.6 5.2 0.00 0.00 0.00 49 1025.4
20211017151005 59 65 2.6 6.1 0.00 0.00 0.00 51 1025.4
20211017150459 59 86 2.6 6.1 0.00 0.00 0.00 51 1025.4
20211017145955 58 0 2.6 5.2 0.00 0.00 0.00 53 1025.5
20211017145442 58 93 2.6 6.1 0.00 0.00 0.00 54 1025.4
20211017144933 57 55 1.7 6.1 0.00 0.00 0.00 56 1025.4
20211017144432 56 64 2.6 6.1 0.00 0.00 0.00 58 1025.4
20211017143920 55 43 3.5 7.0 0.00 0.00 0.00 59 1025.4
20211017143414 54 81 3.5 7.0 0.00 0.00 0.00 64 1025.4
20211017142910 51 52 2.6 7.0 0.00 0.00 0.00 73 1025.3
20211017142357 50 55 1.7 5.2 0.00 0.00 0.00 76 1025.3
20211017141852 49 70 2.6 6.1 0.00 0.00 0.00 78 1025.3
20211017141348 49 32 1.7 6.1 0.00 0.00 0.00 80 1025.3
20211017140833 48 83 0.9 4.3 0.00 0.00 0.00 81 1025.3
20211017140331 48 46 0.9 2.6 0.00 0.00 0.00 82 1025.2
20211017135828 47 42 0.0 2.6 0.00 0.00 0.00 82 1025.2
20211017135315 47 41 0.0 3.5 0.00 0.00 0.00 83 1025.2
20211017134807 46 49 0.9 3.5 0.00 0.00 0.00 83 1025.2
20211017134304 46 49 0.9 3.5 0.00 0.00 0.00 83 1025.2
20211017133753 46 51 0.0 3.5 0.00 0.00 0.00 83 1025.1
20211017133247 45 51 0.0 1.7 0.00 0.00 0.00 83 1025.2
20211017132743 45 51 0.0 4.3 0.00 0.00 0.00 83 1025.1
20211017132230 44 57 0.9 4.3 0.00 0.00 0.00 83 1025.2
20211017131724 44 345 0.9 2.6 0.00 0.00 0.00 83 1025.1
20211017131218 44 344 0.0 2.6 0.00 0.00 0.00 83 1025.1
20211017130712 44 332 0.0 1.7 0.00 0.00 0.00 83 1025.1
20211017130207 43 331 0.0 0.9 0.00 0.00 0.00 83 1025.1
20211017125701 43 331 0.0 0.9 0.00 0.00 0.00 83 1025.1
20211017125151 43 331 0.0 0.0 0.00 0.00 0.00 83 1024.9
20211017124644 42 331 0.0 0.9 0.00 0.00 0.00 83 1025.0
20211017124139 42 331 0.0 1.7 0.00 0.00 0.00 83 1024.9
20211017123628 42 331 0.0 1.7 0.00 0.00 0.00 83 1024.9
20211017123121 42 330 0.0 1.7 0.00 0.00 0.00 83 1024.8
20211017122617 42 330 0.0 1.7 0.00 0.00 0.00 83 1024.8
20211017122113 42 330 0.0 1.7 0.00 0.00 0.00 83 1024.7
20211017121601 42 330 0.0 2.6 0.00 0.00 0.00 83 1024.7
20211017121101 41 330 0.0 2.6 0.00 0.00 0.00 82 1024.7
20211017120554 41 330 0.0 1.7 0.00 0.00 0.00 82 1024.6
20211017120052 41 330 0.0 1.7 0.00 0.00 0.00 82 1024.5
20211017115554 41 330 0.0 1.7 0.00 0.00 0.00 82 1024.5
20211017115048 41 330 0.0 0.9 0.00 0.00 0.00 82 1024.5
20211017114550 41 330 0.0 0.9 0.00 0.00 0.00 82 1024.5
20211017114045 42 330 0.0 0.9 0.00 0.00 0.00 82 1024.5
20211017113545 42 330 0.0 0.0 0.00 0.00 0.00 82 1024.5
20211017113041 42 330 0.0 0.0 0.00 0.00 0.00 82 1024.5
20211017112541 42 330 0.0 0.0 0.00 0.00 0.00 82 1024.5
20211017112045 42 330 0.0 0.0 0.00 0.00 0.00 82 1024.5
20211017111538 42 330 0.0 0.0 0.00 0.00 0.00 82 1024.5
20211017111036 42 330 0.0 0.0 0.00 0.00 0.00 82 1024.4
20211017110540 42 330 0.0 0.0 0.00 0.00 0.00 82 1024.4
20211017110036 42 330 0.0 0.0 0.00 0.00 0.00 82 1024.3
20211017105535 42 330 0.0 0.0 0.00 0.00 0.00 82 1024.3
20211017105035 42 330 0.0 0.0 0.00 0.00 0.00 82 1024.4
20211017104529 42 330 0.0 0.0 0.00 0.00 0.00 82 1024.4
20211017104024 42 330 0.0 0.0 0.00 0.00 0.00 82 1024.4
20211017103525 42 330 0.0 0.0 0.00 0.00 0.00 82 1024.3
20211017103031 43 330 0.0 0.0 0.00 0.00 0.00 82 1024.2
20211017102526 43 330 0.0 0.0 0.00 0.00 0.00 82 1024.2
20211017102025 43 330 0.0 0.0 0.00 0.00 0.00 82 1024.2
20211017101523 43 330 0.0 0.0 0.00 0.00 0.00 82 1024.2
20211017101025 43 330 0.0 0.0 0.00 0.00 0.00 82 1024.1
20211017100520 43 330 0.0 0.0 0.00 0.00 0.00 82 1024.1
20211017100018 43 330 0.0 0.0 0.00 0.00 0.00 82 1024.1
20211017095517 43 330 0.0 0.0 0.00 0.00 0.00 82 1024.1
20211017095016 43 330 0.0 0.0 0.00 0.00 0.00 82 1024.1
20211017094517 43 330 0.0 0.0 0.00 0.00 0.00 82 1024.1
20211017094016 43 330 0.0 1.7 0.00 0.00 0.00 82 1024.1
20211017093512 43 330 0.0 1.7 0.00 0.00 0.00 82 1024.1
20211017093013 43 330 0.0 1.7 0.00 0.00 0.00 82 1024.0
20211017092513 43 330 0.0 0.9 0.00 0.00 0.00 82 1024.0
20211017092013 43 330 0.0 0.9 0.00 0.00 0.00 82 1024.0
20211017091509 44 330 0.0 0.0 0.00 0.00 0.00 82 1023.9
20211017091009 44 330 0.0 0.0 0.00 0.00 0.00 82 1024.0
20211017090513 44 330 0.0 0.0 0.00 0.00 0.00 82 1024.0
20211017090010 44 330 0.0 0.0 0.00 0.00 0.00 82 1024.0
20211017085510 44 330 0.0 0.0 0.00 0.00 0.00 82 1024.0
20211017085007 44 330 0.0 0.0 0.00 0.00 0.00 83 1024.0
20211017084515 44 330 0.0 0.0 0.00 0.00 0.00 83 1024.0
20211017084009 44 330 0.0 0.0 0.00 0.00 0.00 83 1024.0
20211017083508 44 330 0.0 0.0 0.00 0.00 0.00 83 1023.9
20211017083006 44 330 0.0 0.0 0.00 0.00 0.00 83 1023.8
20211017082520 44 330 0.0 0.0 0.00 0.00 0.00 83 1023.9
20211017082014 44 330 0.0 0.0 0.00 0.00 0.00 83 1023.8
20211017081504 44 330 0.0 0.0 0.00 0.00 0.00 83 1023.8
20211017081007 44 330 0.0 0.0 0.00 0.00 0.00 82 1023.8
20211017080503 44 330 0.0 0.0 0.00 0.00 0.00 82 1023.8
20211017080006 44 330 0.0 0.0 0.00 0.00 0.00 82 1023.7
20211017075503 44 330 0.0 0.0 0.00 0.00 0.00 82 1023.7
20211017075006 44 330 0.0 0.0 0.00 0.00 0.00 82 1023.7
20211017074503 44 330 0.0 0.0 0.00 0.00 0.00 82 1023.7
20211017074002 44 330 0.0 0.0 0.00 0.00 0.00 82 1023.7
20211017073503 44 330 0.0 0.0 0.00 0.01 0.00 82 1023.7
20211017073004 44 330 0.0 0.0 0.00 0.01 0.00 82 1023.7
20211017072501 44 330 0.0 0.0 0.00 0.01 0.00 82 1023.7
20211017072003 45 330 0.0 0.0 0.00 0.01 0.00 82 1023.7
20211017071501 45 330 0.0 0.0 0.00 0.01 0.00 82 1023.7
20211017071006 45 330 0.0 0.0 0.00 0.01 0.00 82 1023.7
20211017070503 45 330 0.0 0.0 0.00 0.01 0.00 82 1023.7
20211017070004 45 330 0.0 0.9 0.00 0.01 0.00 82 1023.7
20211017065004 45 330 0.0 0.9 0.00 0.01 0.00 83 1023.7
20211017064504 45 330 0.0 1.7 0.00 0.01 0.00 83 1023.7
20211017063959 45 330 0.0 1.7 0.00 0.01 0.00 83 1023.7
20211017063501 45 330 0.0 2.6 0.00 0.01 0.00 83 1023.7
20211017062956 45 330 0.9 2.6 0.00 0.01 0.00 83 1023.6
20211017062458 45 330 0.9 2.6 0.00 0.01 0.00 83 1023.6
20211017061955 45 330 0.0 2.6 0.00 0.01 0.00 83 1023.6
20211017061453 45 330 0.0 1.7 0.00 0.01 0.00 83 1023.6
20211017060955 45 330 0.0 0.0 0.00 0.01 0.00 83 1023.7
20211017060456 45 330 0.0 0.0 0.00 0.01 0.00 83 1023.6
20211017055953 45 330 0.0 0.0 0.00 0.01 0.00 83 1023.6
20211017055451 45 330 0.0 0.9 0.00 0.01 0.00 83 1023.6
20211017054956 45 330 0.0 0.9 0.00 0.01 0.00 83 1023.4
20211017054455 45 330 0.0 1.7 0.00 0.01 0.00 83 1023.4
20211017053952 45 330 0.0 2.6 0.00 0.01 0.00 83 1023.3
20211017053447 45 330 0.0 2.6 0.00 0.01 0.00 83 1023.3
20211017052948 45 329 0.0 1.7 0.00 0.01 0.00 83 1023.3
20211017052443 45 329 0.0 0.0 0.00 0.01 0.00 83 1023.3
20211017051936 45 329 0.0 0.0 0.00 0.01 0.00 83 1023.3
20211017051430 45 329 0.0 0.0 0.00 0.01 0.00 83 1023.3
20211017050927 45 329 0.0 0.0 0.00 0.01 0.00 83 1023.3
20211017050426 46 329 0.0 0.0 0.00 0.01 0.00 82 1023.3
20211017045928 46 329 0.0 0.0 0.00 0.01 0.01 83 1023.3
20211017045426 46 329 0.0 0.0 0.00 0.01 0.01 82 1023.3
20211017044927 46 329 0.0 0.0 0.00 0.01 0.01 82 1023.4
20211017044433 46 329 0.0 0.0 0.00 0.01 0.01 82 1023.4
20211017043923 46 329 0.0 0.0 0.00 0.01 0.01 82 1023.5
20211017043426 46 329 0.0 0.0 0.00 0.01 0.01 82 1023.5
20211017042920 46 329 0.0 0.0 0.00 0.02 0.01 82 1023.5
20211017042419 46 329 0.0 0.0 0.00 0.02 0.01 82 1023.4
20211017041917 46 329 0.0 0.0 0.00 0.03 0.01 82 1023.4
20211017041416 46 329 0.0 0.0 0.00 0.03 0.01 82 1023.3
20211017040918 46 329 0.0 0.0 0.00 0.03 0.01 82 1023.3
20211017040415 47 329 0.0 0.0 0.00 0.03 0.01 82 1023.3
20211017035920 47 329 0.0 0.0 0.00 0.04 0.01 82 1023.2
20211017035408 47 329 0.0 0.0 0.00 0.04 0.01 82 1023.2
20211017034904 47 329 0.0 0.0 0.00 0.05 0.01 82 1023.2
20211017034358 47 329 0.0 0.0 0.00 0.06 0.01 82 1023.3
20211017033847 47 329 0.0 0.0 0.00 0.09 0.01 82 1023.2
20211017033344 47 329 0.0 0.0 0.00 0.14 0.01 82 1023.2
20211017032836 47 329 0.0 0.0 0.00 0.21 0.01 82 1023.2
20211017032324 47 329 0.0 0.0 0.00 0.32 0.01 82 1023.2
20211017031820 47 329 0.0 0.0 0.00 0.45 0.01 82 1023.2
20211017031315 47 329 0.0 0.9 0.00 0.58 0.01 82 1023.2
20211017030800 47 329 0.0 0.9 0.00 0.60 0.01 82 1023.1
20211017030258 48 329 0.0 0.0 0.00 0.62 0.01 81 1023.1
20211017025755 48 329 0.0 0.0 0.00 0.63 0.01 81 1023.1
20211017025241 48 329 0.0 1.7 0.00 0.63 0.01 81 1023.1
20211017024735 48 329 0.0 1.7 0.00 0.63 0.01 81 1023.1
20211017024231 48 329 0.0 0.0 0.00 0.63 0.01 81 1023.1
20211017023719 48 329 0.0 0.0 0.00 0.63 0.01 81 1023.0
20211017023213 48 329 0.0 0.0 0.00 0.63 0.01 81 1023.0
20211017022708 48 329 0.0 0.0 0.00 0.63 0.01 80 1023.0
20211017022158 48 329 0.0 0.0 0.00 0.63 0.01 80 1023.0
20211017021653 48 329 0.0 0.0 0.00 0.63 0.01 80 1023.0
20211017021146 48 329 0.0 0.0 0.00 0.63 0.01 80 1022.9
20211017020636 49 329 0.0 0.0 0.00 0.63 0.01 80 1022.8
20211017020130 49 329 0.0 0.0 0.00 0.63 0.01 79 1022.8
20211017015624 49 329 0.0 0.0 0.00 0.63 0.01 79 1022.8
20211017015112 49 329 0.0 0.0 0.00 0.63 0.01 79 1022.7
20211017014608 49 329 0.0 0.0 0.00 0.63 0.01 78 1022.7
20211017014103 49 329 0.0 0.0 0.00 0.63 0.01 78 1022.7
20211017013551 49 329 0.0 0.0 0.00 0.63 0.01 77 1022.6
20211017013046 50 329 0.0 0.0 0.00 0.63 0.01 77 1022.5
20211017012539 50 329 0.0 0.0 0.00 0.63 0.01 77 1022.5
20211017012034 50 329 0.0 0.0 0.00 0.63 0.01 76 1022.4
20211017011526 50 329 0.0 0.0 0.00 0.63 0.01 76 1022.4
20211017011018 50 329 0.0 0.0 0.00 0.63 0.01 76 1022.3
20211017010507 50 329 0.0 0.0 0.00 0.63 0.01 75 1022.3
20211017010000 51 329 0.0 0.0 0.00 0.63 0.01 75 1022.2
20211017005455 51 329 0.0 0.0 0.00 0.63 0.01 75 1022.1
20211017004954 51 329 0.0 0.0 0.00 0.63 0.01 74 1022.1
20211017004451 51 329 0.0 0.0 0.00 0.63 0.01 74 1022.1
20211017003947 51 329 0.0 0.0 0.00 0.63 0.01 73 1022.1
20211017003445 52 329 0.0 0.0 0.00 0.63 0.01 73 1022.0
20211017002943 52 329 0.0 0.0 0.00 0.63 0.01 72 1022.1
20211017002445 52 329 0.0 0.0 0.00 0.63 0.01 72 1022.1
20211017001939 52 329 0.0 0.0 0.00 0.63 0.01 71 1022.1
20211017001440 53 329 0.0 0.0 0.00 0.63 0.01 70 1022.1
20211017000939 53 329 0.0 0.0 0.00 0.63 0.01 69 1022.0
20211017000437 53 329 0.0 0.0 0.00 0.63 0.01 68 1021.9
20211016235935 54 329 0.0 0.0 0.00 0.64 0.01 67 1021.8
20211016235432 54 329 0.0 0.0 0.00 0.64 0.01 66 1021.8
20211016234931 55 329 0.0 0.0 0.00 0.64 0.01 64 1021.8
20211016234433 55 329 0.0 0.0 0.00 0.65 0.01 63 1021.7
20211016233933 56 329 0.0 1.7 0.00 0.65 0.01 62 1021.7
20211016233434 56 329 0.0 1.7 0.00 0.65 0.01 61 1021.7
20211016232929 57 329 0.0 0.0 0.00 0.65 0.01 60 1021.7
20211016232424 58 329 0.0 0.0 0.00 0.65 0.01 57 1021.6
20211016231922 58 329 0.0 0.9 0.00 0.65 0.01 56 1021.6
20211016231426 59 329 0.0 3.5 0.00 0.65 0.01 54 1021.6
20211016230923 59 329 0.0 3.5 0.00 0.65 0.01 52 1021.6
20211016230417 60 333 0.9 2.6 0.00 0.65 0.01 50 1021.5
20211016225917 60 333 0.9 2.6 0.00 0.66 0.01 49 1021.5
20211016225419 61 333 0.9 2.6 0.00 0.66 0.01 48 1021.5
20211016224919 61 343 0.9 2.6 0.00 0.67 0.01 46 1021.5
20211016224417 61 323 0.9 6.1 0.00 0.67 0.01 46 1021.4
20211016223917 62 325 1.7 6.1 0.00 0.67 0.01 44 1021.5
20211016223414 62 335 2.6 5.2 0.00 0.67 0.01 43 1021.5
20211016222915 62 328 2.6 7.8 0.00 0.67 0.01 43 1021.5
20211016222418 62 334 2.6 7.8 0.00 0.68 0.01 43 1021.5
20211016221914 62 342 2.6 7.0 0.00 0.68 0.01 43 1021.5
20211016221415 62 304 3.5 7.8 0.00 0.68 0.01 43 1021.4
20211016220916 63 329 3.5 10.4 0.00 0.68 0.01 42 1021.4
20211016220417 63 335 3.5 10.4 0.00 0.68 0.01 41 1021.4
20211016215922 63 321 2.6 7.8 0.00 0.68 0.01 42 1021.4
20211016215415 63 325 2.6 8.7 0.00 0.68 0.01 42 1021.4
20211016214923 63 341 2.6 8.7 0.00 0.68 0.01 41 1021.4
20211016214422 63 326 2.6 8.7 0.00 0.68 0.01 40 1021.5
20211016213920 63 15 3.5 8.7 0.00 0.68 0.01 41 1021.4
20211016213424 63 323 3.5 8.7 0.00 0.68 0.01 40 1021.4
20211016212924 63 293 4.3 10.4 0.00 0.68 0.01 41 1021.3
20211016212417 64 358 4.3 10.4 0.00 0.68 0.01 39 1021.3
20211016211919 64 337 5.2 10.4 0.00 0.68 0.01 39 1021.3
20211016211418 64 25 5.2 9.6 0.00 0.68 0.01 38 1021.3
20211016210916 64 318 6.1 10.4 0.00 0.68 0.01 38 1021.3
20211016210410 64 338 5.2 10.4 0.00 0.68 0.01 37 1021.3
20211016205913 64 333 3.5 10.4 0.00 0.68 0.01 39 1021.3
20211016205412 64 345 4.3 10.4 0.00 0.68 0.01 39 1021.3
20211016204912 64 337 4.3 10.4 0.00 0.68 0.01 38 1021.3
20211016204411 64 339 4.3 10.4 0.00 0.70 0.01 38 1021.2
20211016203919 65 353 5.2 10.4 0.00 0.74 0.01 37 1021.3
20211016203419 65 0 4.3 9.6 0.00 0.75 0.01 38 1021.3
20211016202920 65 319 3.5 8.7 0.00 0.76 0.01 40 1021.2
20211016202410 64 349 3.5 9.6 0.00 0.77 0.01 38 1021.2
20211016201916 65 6 4.3 11.3 0.00 0.77 0.01 37 1021.3
20211016201413 65 18 6.1 13.9 0.00 0.77 0.01 36 1021.2
20211016200917 64 20 7.0 13.9 0.00 0.77 0.01 36 1021.0
20211016200406 64 321 6.1 13.0 0.00 0.81 0.01 36 1020.9
20211016195906 64 328 5.2 13.0 0.00 0.82 0.01 36 1020.9
20211016195405 64 354 5.2 11.3 0.00 0.83 0.01 35 1021.2
20211016194906 64 294 6.1 12.2 0.00 0.93 0.01 36 1021.0
20211016194406 65 345 5.2 12.2 0.00 0.93 0.01 37 1021.2
20211016193905 65 4 4.3 11.3 0.00 0.93 0.01 36 1021.0
20211016193412 65 4 4.3 9.6 0.00 0.93 0.01 39 1021.0
20211016192907 65 352 4.3 13.0 0.00 0.93 0.01 39 1021.0
20211016192405 65 321 4.3 13.0 0.00 0.93 0.01 39 1021.0
20211016191910 65 3 4.3 11.3 0.00 0.93 0.01 40 1020.9
20211016191408 65 7 3.5 11.3 0.00 0.93 0.01 40 1020.9
20211016190904 64 11 3.5 8.7 0.00 0.93 0.01 42 1020.8
20211016190405 64 1 3.5 8.7 0.00 0.93 0.01 41 1020.9
20211016185906 64 64 5.2 11.3 0.00 0.93 0.01 40 1020.9
20211016185405 64 4 6.1 12.2 0.00 0.93 0.01 38 1021.0
20211016184857 64 38 6.1 14.8 0.00 0.93 0.01 37 1021.2
20211016184356 64 37 6.1 14.8 0.00 0.93 0.01 40 1021.2
20211016183856 64 98 5.2 14.8 0.00 0.93 0.01 38 1021.0
20211016183356 64 1 5.2 13.0 0.00 0.93 0.01 39 1021.2
20211016182856 64 342 5.2 11.3 0.00 0.93 0.01 38 1021.3
20211016182356 64 343 4.3 11.3 0.00 0.93 0.01 40 1021.5
20211016181857 64 4 4.3 13.0 0.00 0.93 0.01 41 1021.5
20211016181356 64 39 5.2 13.0 0.00 0.93 0.01 40 1021.6
20211016180854 64 45 5.2 10.4 0.00 0.93 0.01 41 1021.7
20211016180347 63 40 4.3 10.4 0.00 0.93 0.01 41 1021.7
20211016175841 63 47 4.3 10.4 0.00 0.93 0.01 41 1021.9
20211016175343 63 41 5.2 14.8 0.00 0.93 0.01 41 1021.9
20211016174844 63 38 5.2 14.8 0.00 0.93 0.01 41 1021.9
20211016174340 63 19 6.1 10.4 0.00 0.93 0.01 40 1021.9
20211016173844 63 87 7.0 14.8 0.00 0.93 0.01 38 1022.1
20211016173345 63 1 5.2 14.8 0.00 0.93 0.01 39 1022.2
20211016172844 63 70 4.3 11.3 0.00 0.93 0.01 40 1022.2
20211016172342 62 53 5.2 11.3 0.00 0.93 0.01 41 1022.2
20211016171838 63 12 6.1 11.3 0.00 0.93 0.01 41 1022.2
20211016171339 63 333 6.1 12.2 0.00 0.93 0.01 40 1022.3
20211016170838 63 345 6.1 13.0 0.00 0.93 0.01 40 1022.3
20211016170339 62 359 5.2 13.0 0.00 0.93 0.01 41 1022.3
20211016165838 62 346 6.1 13.0 0.00 0.93 0.01 40 1022.4